Starlink 31515

operational
NORAD ID: 59476 Int'l Des: 2024-068 Owner: SPXS Country: US Constellation: starlink
LEOCIRCULAR

关于 Starlink 31515

正在加载描述...

实时位置

正在加载3D地球...

即将过境

高度历史

Altitude vs Time

uPlot chart will show altitude changes over time

两行轨道根数

1 59476U 24068X 26033.90820742 .00001482 00000-0 63347-4 0 9999
2 59476 43.0000 230.9133 0001193 271.7832 88.2883 15.27581695103207
Epoch: Feb 2, 2026 • Age: 12 hours

当前状态

高度 492.5 km
速度 7.62 km/s
星下点 -35.55°S, 106.7°W
发射日期 Apr 10, 2024
运行时间 1.8 years
类型 internet

技术详情

分类 Payload
质量 730.00 kg
干质量 700.00 kg
总质量 730.00 kg
长度 0.30 m
直径 4.10 m
跨度 29.00 m
形状 Box + pan
制造商 SPXS
平台类型 Starlink V2M
阶段状态 In Orbit
所有者/国家 SPXS/US

大型星座

Loading constellations...